Location: Carnoy
(49.9849°N, 2.7558°E)
Time: 06:25:39
(UTC+00:00)

CSL-04 Rocket - Pass Details

Date: 24 January 2020
Orbit: 806 x 860 km, 99.0° (Epoch: 23 February)

Event Time Altitude Azimuth Distance (km) Brightness Sun altitude
Rises 18:45:11 0° 178° (S) 3,396 6.9 -21.6°
Reaches altitude 10° 18:47:35 10° 183° (S) 2,472 6.2 -22.0°
Maximum altitude 18:52:57 53° 260° (W) 1,048 4.5 -22.8°
Drops below altitude 10° 18:58:24 10° 337° (NNW) 2,508 6.4 -23.7°
Sets 19:00:52 0° 342° (NNW) 3,451 7.1 -24.1°
